Temperature
2 2 2 2 2 2 2 2 2 2 2 2 2 2 2 2 2 2 2 2 2 2 2 2 2 2 2 2 2 2 2 2 2 3 3 3 3 3 3 3 2 2 2
2 2 2 1 1 1 1 1 1 1 1 1 2 1 1 1 1 1 1 1 2 2 2 2 2 2 2 2 2 2 2 2 2 2 2 2 2 2 2 2 2 2 2
1 1 1 1 1 1 1 1 1 1 1 1 1 1 1 1 1 1 1 1 1 1 1 1 1 1 1 1 1 1 1 1 1 1 1 1 1 1 1 1 1 1 1
1 1 1 1 1 1 0 0 0 0 0 0 0 0 0 0 0 0 -0 -0 -0 0 0 0 1 1 1 0 0 0 1 0 1 1 1 1 1 1 0 0 1 1 1
0 0 0 -0 -0 -0 -0 -0 -0 -0 -0 -0 -0 -0 -0 -0 -1 -1 -1 -1 -1 -1 -0 -0 -0 -0 -0 -0 -0 -0 -0 -0 0 0 0 0 0 -0 -0 -0 -0 -0 -0
-1 -1 -1 -1 -1 -1 -1 -1 -1 -1 -1 -1 -1 -1 -1 -1 -1 -1 -1 -1 -1 -1 -1 -1 -1 -1 -1 -1 -1 -1 -1 -1 -1 -1 -1 -1 -0 -0 -1 -1 -1 -1 -1
-1 -1 -2 -2 -2 -2 -2 -2 -2 -2 -2 -2 -2 -2 -2 -2 -2 -2 -2 -2 -2 -2 -2 -2 -1 -1 -1 -1 -1 -1 -1 -1 -1 -1 -1 -1 -1 -1 -1 -1 -1 -2 -1
-2 -2 -2 -2 -2 -2 -3 -3 -3 -3 -3 -3 -3 -2 -3 -3 -3 -3 -3 -3 -3 -3 -2 -2 -2 -2 -2 -2 -2 -2 -2 -2 -2 -2 -2 -2 -2 -2 -2 -2 -2 -2 -2
-3 -3 -3 -3 -3 -3 -3 -3 -3 -3 -3 -3 -3 -3 -3 -3 -3 -3 -4 -4 -3 -3 -3 -3 -3 -2 -2 -2 -2 -2 -2 -2 -2 -3 -2 -2 -2 -2 -3 -3 -3 -3 -3
-3 -3 -4 -4 -4 -4 -4 -4 -4 -4 -4 -4 -4 -4 -4 -4 -4 -4 -4 -4 -4 -4 -4 -4 -4 -3 -3 -3 -3 -3 -3 -3 -3 -3 -3 -3 -3 -3 -3 -3 -3 -3 -4
-4 -4 -4 -5 -5 -5 -5 -5 -5 -5 -5 -5 -5 -5 -5 -5 -5 -5 -5 -5 -5 -5 -4 -4 -4 -4 -4 -4 -4 -4 -3 -4 -3 -3 -3 -4 -4 -4 -4 -4 -4 -4 -4
-5 -5 -5 -5 -5 -5 -5 -5 -5 -6 -6 -6 -6 -5 -5 -5 -5 -5 -6 -6 -6 -5 -5 -5 -5 -5 -5 -4 -4 -4 -4 -4 -4 -4 -4 -4 -4 -4 -4 -4 -5 -5 -5
-6 -6 -6 -6 -6 -6 -6 -6 -6 -6 -6 -6 -6 -6 -6 -6 -6 -6 -6 -6 -6 -6 -6 -6 -6 -5 -5 -5 -5 -5 -5 -5 -5 -5 -5 -5 -5 -5 -5 -5 -5 -5 -5
-7 -7 -7 -7 -7 -7 -7 -7 -7 -7 -7 -7 -7 -7 -7 -7 -6 -6 -7 -7 -7 -7 -7 -6 -6 -6 -6 -6 -6 -6 -6 -6 -6 -6 -6 -6 -6 -6 -6 -6 -6 -6 -6
-8 -8 -8 -8 -8 -8 -8 -8 -8 -8 -8 -8 -8 -8 -8 -7 -7 -7 -7 -7 -7 -7 -7 -7 -7 -7 -7 -7 -6 -6 -6 -6 -6 -7 -7 -7 -7 -7 -7 -7 -7 -7 -7
-9 -9 -9 -9 -9 -9 -9 -9 -8 -9 -8 -8 -8 -8 -8 -8 -8 -8 -8 -7 -8 -8 -8 -8 -8 -8 -8 -7 -7 -7 -7 -7 -7 -7 -8 -8 -8 -7 -7 -7 -7 -7 -8
-10 -10 -10 -10 -10 -10 -10 -10 -9 -9 -9 -9 -9 -9 -9 -9 -9 -9 -8 -8 -8 -8 -8 -8 -8 -8 -8 -8 -8 -8 -8 -8 -8 -8 -8 -8 -8 -8 -8 -8 -8 -8 -8
-11 -11 -11 -11 -11 -11 -11 -11 -11 -11 -10 -10 -10 -10 -10 -9 -9 -9 -9 -9 -9 -9 -9 -9 -9 -9 -9 -9 -9 -9 -8 -8 -9 -9 -9 -9 -9 -9 -9 -9 -9 -9 -9
-11 -11 -12 -12 -12 -12 -12 -12 -12 -12 -11 -11 -11 -10 -10 -10 -10 -10 -10 -10 -10 -10 -10 -10 -10 -10 -10 -10 -9 -9 -9 -9 -9 -9 -9 -9 -9 -9 -9 -9 -9 -9 -9
-12 -12 -12 -12 -12 -12 -12 -12 -12 -12 -12 -12 -12 -11 -11 -11 -11 -10 -10 -10 -10 -10 -10 -10 -10 -10 -10 -10 -10 -10 -10 -10 -10 -10 -10 -10 -10 -10 -10 -10 -10 -10 -10
-13 -13 -13 -13 -13 -13 -13 -13 -13 -13 -13 -13 -12 -12 -12 -12 -12 -11 -11 -11 -11 -11 -11 -11 -11 -11 -11 -11 -11 -10 -10 -10 -10 -10 -10 -10 -10 -10 -10 -10 -10 -10 -11
-13 -13 -13 -13 -13 -13 -13 -13 -13 -13 -13 -13 -13 -13 -13 -12 -12 -12 -12 -12 -12 -11 -11 -11 -11 -11 -11 -11 -11 -11 -11 -10 -10 -10 -11 -11 -11 -11 -11 -11 -11 -11 -11
-14 -14 -14 -14 -14 -14 -14 -14 -14 -14 -14 -13 -13 -13 -13 -13 -13 -13 -12 -12 -12 -12 -12 -12 -11 -11 -11 -11 -11 -11 -11 -11 -11 -11 -11 -11 -11 -11 -11 -11 -12 -12 -12
-14 -14 -14 -14 -14 -14 -14 -14 -14 -14 -14 -14 -14 -14 -14 -14 -13 -13 -13 -12 -12 -12 -12 -12 -12 -12 -12 -12 -11 -11 -11 -11 -11 -11 -11 -11 -11 -12 -12 -12 -12 -12 -12
-15 -15 -15 -15 -15 -15 -15 -15 -15 -14 -14 -14 -14 -14 -14 -14 -14 -14 -13 -13 -13 -13 -13 -12 -12 -12 -12 -12 -12 -12 -12 -12 -12 -12 -12 -12 -12 -12 -12 -12 -13 -13 -13
-15 -15 -15 -15 -15 -15 -15 -15 -15 -15 -15 -15 -15 -15 -15 -14 -14 -14 -14 -14 -13 -13 -13 -13 -13 -13 -12 -12 -12 -12 -12 -12 -12 -12 -13 -13 -13 -13 -13 -13 -13 -13 -13
Wind_Speed
4 4 4 4 4 4 4 5 5 4 5 5 6 5 6 6 6 5 5 5 6 5 5 6 7 5 5 5 5 5 5 4 5 4 3 3 4 5 5 7 7 8 8
4 4 4 4 4 4 5 5 5 5 5 6 6 6 6 6 6 7 7 6 7 7 7 7 7 6 6 5 5 6 6 5 5 5 3 3 4 5 5 5 6 7 8
3 4 4 4 4 5 5 5 5 5 5 5 5 7 7 7 7 7 7 7 7 8 7 7 7 7 7 6 6 6 5 5 4 5 4 3 3 3 3 3 4 5 6
3 4 5 5 5 5 5 5 5 5 5 5 5 6 6 7 7 7 7 7 7 7 7 7 8 9 8 8 7 7 6 5 4 5 4 3 3 3 3 3 3 3 4
3 4 5 5 4 4 4 4 4 4 5 5 5 5 5 6 6 7 7 7 7 7 7 7 8 10 10 9 8 7 7 6 5 5 5 4 4 4 5 4 4 3 3
4 5 4 3 4 4 4 4 4 4 4 4 5 5 6 6 8 10 8 7 7 7 7 7 7 9 11 11 11 11 10 9 8 6 6 7 7 5 4 4 4 3 3
4 4 3 3 4 4 3 4 4 4 4 4 5 5 6 7 9 10 10 7 7 7 7 6 6 8 9 8 10 11 12 13 11 8 8 8 7 7 6 6 6 5 4
3 3 3 3 3 3 3 4 4 4 4 5 5 5 5 6 9 10 9 6 6 6 6 7 7 6 8 9 8 8 8 8 10 8 8 8 7 7 8 7 6 4 2
3 3 3 3 3 3 4 4 4 4 4 4 5 5 5 6 8 9 8 4 5 5 6 6 6 6 9 10 8 8 8 7 9 10 10 9 9 9 8 5 5 4 4
4 4 3 3 3 4 4 4 3 3 4 4 4 4 5 5 8 8 7 4 5 4 5 5 8 7 8 10 8 8 9 7 5 5 5 6 6 7 9 8 7 6 3
4 4 3 3 3 3 3 3 2 3 3 3 3 3 4 5 7 8 8 5 5 5 5 4 5 9 9 10 8 7 8 6 5 5 4 4 4 5 5 6 6 6 5
4 4 3 3 2 2 2 2 2 2 3 3 3 3 3 4 6 7 9 8 6 5 5 5 6 9 9 9 7 7 7 5 4 4 4 4 4 4 4 5 5 6 6
3 4 4 4 3 2 2 2 2 2 2 3 3 3 3 3 4 8 9 9 8 5 5 7 8 8 7 6 6 6 5 4 4 4 5 4 4 3 3 3 3 3 2
4 4 4 3 3 3 2 2 2 2 2 3 3 4 3 3 4 4 5 6 7 6 4 6 7 6 4 4 4 4 3 4 4 4 4 3 3 3 3 3 3 3 2
4 3 3 3 3 3 3 2 3 3 4 4 4 4 4 5 6 7 6 5 5 5 4 3 3 3 3 3 3 3 3 3 3 3 3 3 3 3 3 2 2 2 3
4 4 3 3 3 3 3 3 4 4 5 6 5 5 5 6 7 7 7 7 6 6 4 3 4 4 4 4 4 3 3 3 3 3 3 3 4 4 3 3 3 3 3
4 4 3 3 3 3 3 3 4 4 4 5 5 5 6 6 6 6 5 4 5 5 4 3 4 4 4 3 4 4 4 4 3 4 4 4 4 4 4 4 4 4 3
4 4 4 3 3 3 3 3 3 3 4 4 5 6 6 6 5 5 3 2 2 2 2 3 4 4 3 3 4 4 3 3 3 4 4 4 4 4 4 5 5 5 4
4 3 3 3 3 3 3 3 3 3 3 4 4 5 6 5 4 3 2 1 2 2 2 2 2 3 3 3 3 3 4 4 4 4 4 4 4 4 4 5 5 6 5
4 6 5 3 3 3 3 3 3 3 3 3 3 4 4 3 2 2 1 1 1 2 2 2 2 2 3 3 3 3 4 4 4 4 4 4 4 4 5 5 5 5 5
4 5 6 4 3 3 3 3 3 3 3 3 3 4 5 2 2 2 1 1 2 2 2 2 2 3 3 3 3 4 4 4 4 4 4 4 5 4 5 5 5 5 4
3 3 3 3 3 3 3 3 3 3 3 4 4 4 6 3 2 2 2 2 2 2 2 2 3 3 3 3 4 4 4 5 5 5 5 4 4 5 5 5 5 5 5
3 3 3 3 3 5 5 3 3 3 3 4 4 4 3 3 2 2 2 2 2 2 2 2 3 3 3 4 4 4 5 5 5 5 5 5 5 5 5 5 6 6 6
2 3 3 3 3 3 3 4 4 4 4 4 4 4 3 3 3 3 3 3 3 3 3 3 3 4 5 4 4 5 6 6 6 6 7 6 5 5 5 5 6 6 6
2 3 3 3 3 3 4 4 4 4 4 4 4 3 3 3 3 3 3 3 3 3 3 4 4 4 5 5 5 6 7 8 8 7 7 6 6 6 6 6 6 6 6
2 2 3 3 3 3 3 4 4 4 4 4 4 3 3 3 3 4 4 3 3 3 4 4 4 5 6 6 6 7 7 8 8 8 7 6 6 6 6 6 7 7 7
Wind_Direction
224 221 219 214 210 208 215 217 215 212 208 206 209 214 217 214 206 208 216 211 212 216 215 214 220 216 209 210 205 205 213 212 229 239 218 207 204 210 226 229 232 233 236
234 223 226 219 208 210 221 222 218 216 214 214 211 216 221 218 210 209 215 216 216 219 221 218 220 215 212 211 211 212 215 217 219 235 225 210 212 209 210 216 229 234 234
248 225 225 224 220 219 223 222 219 218 216 218 214 218 222 221 218 216 216 220 221 222 220 220 220 213 217 214 213 217 218 223 218 224 228 210 210 201 206 224 226 229 235
256 235 227 229 228 227 224 219 221 219 217 221 223 223 223 223 222 219 217 220 224 225 223 223 221 215 217 215 216 216 212 215 213 219 223 214 211 200 195 213 231 225 235
260 251 238 235 231 228 225 223 224 226 226 222 225 229 226 224 225 221 216 218 222 226 227 227 225 221 221 220 220 212 205 210 211 218 219 215 212 200 208 203 220 235 242
253 255 250 238 233 230 228 225 227 230 229 225 225 225 228 232 236 231 221 218 221 222 227 230 232 227 225 228 231 224 213 210 211 218 222 221 218 210 204 204 208 215 245
253 258 250 235 236 237 235 230 231 233 229 229 227 226 231 237 239 237 229 221 218 220 223 227 235 230 225 223 230 232 226 226 223 220 223 220 216 206 199 207 209 215 229
263 264 266 250 243 242 234 237 241 240 232 232 232 229 229 239 240 237 232 220 224 224 224 224 229 237 227 219 219 223 223 224 227 225 227 223 217 205 199 206 208 215 233
279 278 277 267 251 243 242 243 248 241 239 237 236 228 228 241 241 238 235 218 227 231 231 227 229 236 240 226 216 219 227 232 237 241 241 234 227 220 205 184 188 198 230
296 288 282 266 255 247 247 249 252 244 243 242 245 231 228 238 240 237 235 220 227 233 235 231 234 239 244 228 216 212 221 228 218 220 229 230 220 215 213 199 196 203 209
312 305 291 275 266 256 251 248 242 242 235 237 248 241 234 239 241 238 236 223 223 230 236 235 237 244 243 234 226 218 224 221 205 203 207 210 206 206 210 210 204 202 204
321 317 312 302 293 283 253 254 237 222 230 236 242 249 243 243 243 241 239 239 236 233 239 238 240 243 243 240 234 225 229 227 198 195 203 211 212 212 208 209 213 217 215
329 325 327 329 319 296 257 246 241 226 230 242 243 249 253 248 246 248 247 244 243 242 244 244 247 246 242 237 233 227 221 211 204 204 212 219 210 201 189 190 197 197 197
329 327 331 334 329 322 303 275 255 245 249 251 250 253 260 255 248 246 243 244 242 247 250 249 243 236 234 239 230 221 217 206 206 211 211 207 191 189 197 191 195 186 199
340 335 336 336 332 333 325 301 279 259 256 257 253 250 250 256 256 255 250 241 225 226 220 226 218 214 209 208 205 204 202 202 205 195 195 198 203 202 205 188 187 185 202
337 339 338 336 334 334 331 327 315 301 294 287 276 267 267 269 275 264 257 251 239 225 216 211 213 212 211 211 208 206 203 203 203 200 200 199 202 200 199 190 186 192 203
327 328 328 329 331 329 327 324 325 328 322 316 311 296 288 288 282 276 263 242 230 212 211 209 214 215 213 212 212 208 209 206 202 202 203 203 203 202 197 199 198 199 209
329 325 329 324 324 321 319 317 314 314 320 324 323 319 312 301 292 288 276 243 223 211 212 213 218 217 215 216 217 214 207 198 198 202 203 203 202 202 203 206 205 204 210
331 328 326 325 323 320 322 322 318 317 316 319 326 324 320 313 307 299 281 225 222 231 230 229 227 222 221 219 220 215 206 205 203 201 202 202 202 201 208 209 210 215 213
331 330 336 333 334 334 330 326 323 318 317 319 317 315 319 323 320 311 288 262 240 246 242 239 242 237 228 223 222 219 211 208 205 205 208 206 206 205 208 208 208 210 214
331 331 338 339 335 328 324 319 315 311 308 306 305 308 315 313 294 289 284 271 257 254 249 245 243 239 236 230 225 222 217 215 211 209 212 212 207 207 210 208 208 208 208
332 330 331 328 326 323 324 322 321 316 310 309 313 315 319 331 314 292 285 283 274 265 255 246 245 244 239 234 229 223 220 217 214 208 208 209 207 206 204 205 205 206 203
336 333 330 327 325 326 334 332 325 320 318 317 315 315 318 320 317 310 296 289 284 276 266 254 248 253 255 245 235 226 223 225 221 209 203 203 205 204 200 201 203 204 204
338 330 328 328 328 331 329 327 326 323 320 318 317 317 317 315 312 311 306 300 292 284 273 262 254 252 255 254 246 238 234 230 220 211 204 204 205 206 204 204 206 207 209
334 330 328 325 324 324 324 323 323 322 321 319 318 318 320 321 320 317 311 305 299 293 291 283 268 261 256 253 250 246 241 237 232 218 204 199 204 207 205 206 208 206 209
333 326 321 320 318 318 318 318 318 318 316 315 315 315 314 313 311 309 308 304 302 299 298 295 287 279 270 261 255 252 248 244 240 233 212 199 203 207 203 206 206 209 210
Height
1471 1472 1473 1474 1475 1476 1477 1478 1479 1481 1482 1483 1485 1486 1488 1489 1491 1492 1494 1496 1497 1499 1501 1504 1506 1507 1509 1511 1513 1515 1516 1518 1517 1518 1521 1523 1524 1525 1527 1528 1529 1530 1530
1467 1468 1468 1469 1470 1471 1472 1473 1474 1475 1477 1478 1479 1480 1482 1483 1484 1486 1487 1489 1491 1492 1495 1497 1499 1501 1502 1505 1506 1508 1510 1511 1512 1512 1514 1516 1518 1519 1521 1522 1523 1524 1525
1462 1463 1463 1464 1465 1465 1467 1468 1469 1470 1470 1472 1473 1474 1476 1477 1478 1479 1481 1482 1484 1486 1488 1490 1492 1494 1495 1498 1500 1502 1503 1505 1506 1507 1507 1510 1511 1513 1515 1516 1517 1518 1519
1457 1457 1458 1458 1459 1460 1461 1462 1463 1464 1465 1466 1467 1468 1469 1470 1471 1473 1474 1475 1477 1479 1481 1483 1485 1487 1489 1491 1493 1495 1497 1499 1500 1501 1501 1503 1505 1507 1508 1509 1511 1512 1513
1452 1452 1452 1453 1454 1455 1455 1456 1457 1458 1458 1459 1460 1461 1462 1464 1465 1466 1467 1469 1470 1472 1474 1476 1478 1480 1482 1484 1486 1488 1490 1492 1493 1494 1495 1496 1498 1500 1501 1503 1504 1505 1506
1447 1447 1447 1448 1448 1449 1449 1450 1451 1452 1452 1453 1454 1455 1455 1457 1458 1460 1461 1462 1464 1465 1467 1469 1471 1473 1475 1478 1480 1482 1484 1485 1486 1487 1488 1489 1491 1493 1496 1497 1498 1498 1499
1442 1442 1442 1442 1442 1443 1444 1445 1445 1446 1446 1447 1447 1448 1449 1450 1452 1453 1455 1456 1457 1459 1460 1462 1464 1466 1468 1470 1472 1474 1476 1478 1479 1481 1482 1482 1485 1487 1489 1490 1491 1492 1493
1437 1437 1437 1437 1437 1438 1438 1439 1439 1440 1440 1440 1441 1441 1442 1444 1445 1447 1449 1450 1451 1452 1453 1455 1457 1458 1461 1463 1465 1466 1468 1470 1472 1474 1475 1477 1479 1481 1482 1484 1485 1486 1487
1432 1432 1432 1432 1432 1433 1433 1433 1434 1434 1434 1434 1435 1435 1436 1437 1439 1441 1443 1443 1444 1445 1447 1448 1450 1451 1453 1456 1458 1459 1461 1463 1465 1467 1469 1470 1472 1474 1476 1477 1478 1479 1479
1429 1428 1428 1428 1428 1428 1428 1428 1428 1429 1429 1429 1429 1430 1431 1432 1433 1435 1436 1437 1437 1439 1440 1442 1444 1445 1447 1448 1450 1452 1454 1456 1459 1460 1462 1463 1465 1467 1469 1470 1471 1473 1473
1425 1425 1424 1424 1424 1424 1424 1423 1423 1423 1423 1424 1424 1424 1426 1426 1427 1429 1430 1431 1431 1432 1433 1435 1437 1439 1440 1442 1444 1445 1447 1451 1452 1453 1454 1456 1458 1460 1462 1464 1465 1466 1467
1422 1421 1421 1420 1420 1419 1419 1419 1419 1418 1418 1418 1419 1419 1420 1421 1422 1423 1424 1425 1426 1427 1427 1429 1431 1433 1434 1436 1437 1439 1442 1444 1445 1446 1447 1449 1451 1453 1455 1457 1458 1460 1461
1418 1417 1417 1416 1416 1416 1415 1414 1414 1414 1414 1413 1414 1414 1414 1415 1417 1418 1418 1419 1420 1421 1422 1424 1425 1427 1429 1430 1432 1433 1436 1437 1438 1439 1440 1443 1445 1447 1449 1451 1452 1454 1455
1414 1414 1413 1413 1412 1412 1411 1411 1410 1410 1410 1409 1409 1409 1409 1410 1411 1412 1412 1414 1415 1416 1417 1418 1420 1421 1423 1424 1425 1428 1429 1431 1432 1433 1435 1437 1440 1442 1443 1445 1446 1447 1449
1412 1411 1410 1409 1409 1408 1408 1408 1407 1407 1407 1406 1406 1406 1405 1405 1406 1407 1408 1408 1409 1411 1412 1413 1414 1416 1416 1418 1419 1421 1423 1425 1427 1428 1430 1432 1434 1435 1437 1439 1440 1441 1442
1409 1408 1407 1406 1406 1405 1404 1404 1403 1404 1403 1403 1402 1403 1402 1402 1402 1402 1403 1404 1405 1406 1407 1407 1408 1410 1411 1412 1414 1415 1417 1419 1421 1423 1425 1426 1428 1429 1431 1432 1434 1435 1437
1407 1406 1405 1404 1403 1402 1401 1400 1399 1399 1399 1399 1399 1398 1398 1398 1398 1398 1399 1400 1400 1401 1402 1402 1403 1404 1405 1407 1409 1410 1412 1414 1416 1417 1419 1420 1422 1424 1425 1427 1428 1430 1431
1405 1404 1403 1402 1401 1400 1399 1398 1397 1396 1395 1394 1394 1394 1394 1394 1394 1394 1395 1395 1395 1396 1397 1397 1399 1400 1401 1402 1404 1405 1407 1408 1410 1412 1414 1415 1417 1418 1419 1421 1423 1424 1426
1403 1402 1401 1400 1399 1398 1397 1396 1395 1394 1393 1392 1391 1391 1391 1390 1390 1390 1390 1390 1391 1391 1392 1393 1394 1395 1396 1398 1399 1400 1402 1403 1405 1407 1408 1410 1411 1413 1414 1416 1417 1419 1421
1402 1401 1400 1398 1397 1395 1394 1393 1392 1391 1390 1389 1388 1388 1387 1387 1386 1386 1387 1387 1387 1388 1388 1389 1390 1391 1392 1393 1394 1395 1397 1398 1400 1401 1403 1404 1406 1407 1409 1410 1412 1413 1415
1400 1399 1398 1396 1395 1394 1392 1391 1390 1389 1388 1386 1386 1385 1384 1383 1383 1383 1383 1383 1384 1384 1385 1385 1386 1387 1387 1388 1389 1390 1392 1393 1394 1396 1397 1399 1400 1401 1403 1405 1406 1408 1409
1399 1397 1396 1395 1393 1392 1391 1389 1388 1387 1385 1384 1383 1382 1381 1380 1380 1380 1380 1380 1380 1381 1381 1381 1382 1382 1383 1384 1385 1385 1386 1387 1389 1390 1391 1393 1394 1396 1398 1399 1400 1402 1403
1397 1396 1394 1393 1392 1390 1389 1387 1386 1385 1383 1382 1381 1379 1378 1377 1377 1376 1376 1376 1377 1377 1377 1377 1378 1378 1379 1379 1380 1380 1381 1382 1383 1384 1386 1387 1388 1390 1392 1393 1394 1396 1397
1396 1394 1392 1391 1389 1388 1386 1385 1384 1383 1381 1380 1378 1377 1376 1375 1374 1374 1373 1373 1373 1373 1373 1373 1374 1374 1374 1374 1375 1375 1376 1377 1378 1379 1380 1381 1383 1384 1386 1387 1389 1390 1392
1394 1392 1390 1389 1387 1386 1384 1383 1382 1380 1379 1377 1376 1375 1374 1373 1372 1371 1370 1370 1370 1369 1369 1369 1369 1369 1370 1370 1370 1370 1371 1372 1373 1374 1375 1376 1377 1379 1380 1382 1383 1385 1386
1391 1390 1388 1387 1385 1384 1382 1381 1379 1378 1377 1375 1374 1373 1371 1370 1369 1368 1368 1367 1366 1366 1366 1365 1365 1365 1365 1365 1365 1366 1366 1367 1368 1369 1370 1371 1372 1373 1375 1376 1377 1379 1380